Weather History for Bluefield, WV

Change the Weather History Date:

Tuesday, February 26, 2013

  Actual Average Record
Temperature  
Mean Temperature 37 °F 40 °F  
Max Temperature 42 °F 49 °F 75 °F (1977)
Min Temperature 31 °F 31 °F 0 °F (1967)
Degree Days  
Heating Degree Days 28 25  
Month to date heating degree days 764 723  
Since 1 July heating degree days 3340 3443  
Cooling Degree Days 0 0  
Month to date cooling degree days 0 0  
Year to date cooling degree days 1 0  
Moisture  
Dew Point 28 °F    
Average Humidity 73    
Maximum Humidity 92    
Minimum Humidity 54    
Precipitation  
Precipitation 0.33 in 0.10 in 0.74 in (1972)
Month to date precipitation 1.60 2.55  
Year to date precipitation 7.60 5.45  
Snow  
Snow 0.00 in - - ()
Month to date snowfall 11.9  
Since 1 July snowfall 40.4  
Snow Depth 0.00 in    
Sea Level Pressure  
Sea Level Pressure 29.74 in    
Wind  
Wind Speed 10 mph (ESE)    
Max Wind Speed 25 mph    
Max Gust Speed 43 mph    
Visibility 8 miles    
Events Rain    
T = Trace of Precipitation, MM = Missing Value Source: NWS Daily Summary

Daily Weather History Graph

Daily Weather History Graph

Search for Another Location

Airport:

Trip Planner

Search our weather history database for the weather conditions in past years. The results will help you decide how hot, cold, wet, or windy it might be!

Date:

Astronomy

Feb. 26, 2013 Rise Set
Actual Time 6:59 AM EST 6:16 PM EST
Civil Twilight 6:33 AM EST 6:42 PM EST
Nautical Twilight 6:03 AM EST 7:12 PM EST
Astronomical Twilight 5:33 AM EST 7:42 PM EST
Moon 7:28 PM EST (2/26) 7:03 AM EST (2/26)
Length of Visible Light 12h 08m
Length of Day
11h 16m
Full, 99% of the Moon is Illuminated
Feb 26
Full
Mar 4
Last Quarter
Mar 11
New
Mar 19
First Quarter
Mar 27
Full

Hourly Weather History & Observations

Time (EST) Temp. Windchill Dew Point Humidity Pressure Visibility Wind Dir Wind Speed Gust Speed Precip Events Conditions
12:52 AM 32.0 °F 23.6 °F 18.0 °F 56% 30.01 in 10.0 mi East 10.4 mph 18.4 mph N/A   Mostly Cloudy
1:52 AM 32.0 °F 24.2 °F 17.1 °F 54% 29.99 in 10.0 mi East 9.2 mph 18.4 mph N/A   Overcast
2:27 AM 32.0 °F 24.8 °F 17.6 °F 55% 29.95 in 10.0 mi East 8.1 mph 17.3 mph N/A   Overcast
2:52 AM 32.0 °F 27.5 °F 17.1 °F 54% 29.96 in 10.0 mi Variable 4.6 mph 18.4 mph N/A   Overcast
3:52 AM 32.0 °F 23.0 °F 17.1 °F 54% 29.93 in 10.0 mi ENE 11.5 mph 19.6 mph N/A   Overcast
4:52 AM 32.0 °F 23.0 °F 18.0 °F 56% 29.91 in 10.0 mi ENE 11.5 mph 24.2 mph N/A   Overcast
5:52 AM 30.9 °F 21.7 °F 19.0 °F 61% 29.91 in 10.0 mi East 11.5 mph 23.0 mph N/A   Overcast
6:52 AM 30.9 °F 22.8 °F 21.9 °F 69% 29.87 in 10.0 mi ESE 9.2 mph 21.9 mph N/A   Overcast
7:00 AM 32.0 °F 20.8 °F 21.2 °F 64% 29.85 in 10.0 mi SE 17.3 mph 24.2 mph N/A   Overcast
7:29 AM 30.2 °F 18.1 °F 24.8 °F 80% 29.84 in 8.0 mi ESE 18.4 mph 33.4 mph 0.01 in Rain Light Freezing Rain
7:37 AM 30.2 °F 21.3 °F 24.8 °F 80% 29.84 in 6.0 mi East 10.4 mph 28.8 mph 0.01 in Rain Light Freezing Rain
7:52 AM 30.9 °F 21.7 °F 25.0 °F 79% 29.88 in 7.0 mi SE 11.5 mph 26.5 mph 0.02 in Rain Light Freezing Rain
8:37 AM 32.0 °F 21.2 °F 26.6 °F 80% 29.82 in 4.0 mi ESE 16.1 mph 31.1 mph 0.05 in Rain Light Freezing Rain
8:47 AM 32.0 °F 21.2 °F 26.6 °F 80% 29.81 in 6.0 mi ESE 16.1 mph 28.8 mph 0.06 in Rain Light Freezing Rain
8:52 AM 32.0 °F 21.6 °F 27.0 °F 82% 29.85 in 6.0 mi SE 15.0 mph 28.8 mph 0.06 in Rain Light Freezing Rain
9:00 AM 32.0 °F 22.5 °F 26.6 °F 80% 29.81 in 5.0 mi ESE 12.7 mph 29.9 mph 0.02 in Rain Light Freezing Rain
9:25 AM 33.8 °F 22.5 °F 26.6 °F 75% 29.81 in 7.0 mi SE 19.6 mph 35.7 mph 0.06 in Rain Light Freezing Rain
10:24 AM 33.8 °F 23.9 °F 28.4 °F 81% 29.74 in 9.0 mi ESE 15.0 mph 33.4 mph 0.01 in Rain Light Rain
10:33 AM 33.8 °F 22.2 °F 28.4 °F 81% 29.74 in 10.0 mi SE 20.7 mph 42.6 mph 0.01 in Rain Light Freezing Rain
10:52 AM 35.1 °F 25.9 °F 30.0 °F 82% 29.76 in 10.0 mi SE 13.8 mph 42.6 mph 0.01 in Rain Light Rain
11:22 AM 35.6 °F 25.5 °F 30.2 °F 81% 29.71 in 9.0 mi ESE 17.3 mph 28.8 mph 0.00 in Rain Light Rain
11:52 AM 36.0 °F 26.3 °F 32.0 °F 86% 29.72 in 4.0 mi East 16.1 mph 36.8 mph 0.06 in Rain Light Rain
12:52 PM 36.0 °F 26.3 °F 32.0 °F 86% 29.70 in 9.0 mi ESE 16.1 mph 29.9 mph 0.01 in Rain Light Rain
1:52 PM 37.0 °F 28.5 °F 33.1 °F 86% 29.63 in 6.0 mi ESE 13.8 mph 29.9 mph 0.01 in Rain Light Rain
3:52 PM 39.0 °F 29.9 °F 34.0 °F 82% 29.57 in 10.0 mi SE 17.3 mph 32.2 mph 0.04 in Rain Light Rain
4:52 PM 37.9 °F 31.5 °F 33.1 °F 83% 29.56 in 7.0 mi ESE 9.2 mph 27.6 mph 0.00 in   Overcast
5:52 PM 37.9 °F 33.5 °F 34.0 °F 86% 29.56 in 4.0 mi Variable 5.8 mph 18.4 mph 0.00 in   Overcast
6:52 PM 37.9 °F 32.1 °F 34.0 °F 86% 29.58 in 10.0 mi ESE 8.1 mph 18.4 mph N/A   Overcast
7:09 PM 37.4 °F 32.1 °F 33.8 °F 87% 29.55 in 10.0 mi Variable 6.9 mph 16.1 mph N/A   Overcast
7:33 PM 37.4 °F 33.8 °F 35.6 °F 93% 29.57 in 10.0 mi ESE 4.6 mph - N/A   Overcast
7:52 PM 37.9 °F 32.7 °F 35.1 °F 89% 29.60 in 5.0 mi Variable 6.9 mph - N/A   Overcast
8:52 PM 39.0 °F 36.8 °F 36.0 °F 89% 29.59 in 10.0 mi Variable 3.5 mph - N/A   Overcast
9:14 PM 39.2 °F - 35.6 °F 87% 29.58 in 10.0 mi Calm Calm - N/A   Overcast
9:28 PM 39.2 °F - 37.4 °F 93% 29.58 in 9.0 mi Calm Calm - 0.00 in Rain Light Rain
9:52 PM 39.9 °F - 36.0 °F 86% 29.62 in 10.0 mi Calm Calm - 0.00 in   Overcast
10:48 PM 42.8 °F 38.6 °F 35.6 °F 76% 29.59 in 10.0 mi SW 6.9 mph - 0.00 in   Overcast
10:52 PM 42.1 °F 37.7 °F 36.0 °F 79% 29.60 in 10.0 mi SW 6.9 mph - 0.00 in   Overcast
11:29 PM 42.8 °F 38.0 °F 35.6 °F 76% 29.58 in 10.0 mi WSW 8.1 mph - N/A   Overcast